This is the latest recevied weather packets stored in our database for station/object K5BOU. If no packets are shown the sender has not sent any weather packets the latest 10 day(s).
| Time | Temp. | Humidity | Pressure | Rain* | Wind** | Luminosity | Snow |
|---|---|---|---|---|---|---|---|
| 1788138157 | 88° F | 73% | 759 mmHg | 0 in | - | 0 W/m² | - |
| 1788137853 | 89° F | 72% | 758.9 mmHg | 0 in | - | 0 W/m² | - |
| 1788137548 | 89° F | 72% | 758.8 mmHg | 0 in | - | 0 W/m² | - |
| 1788137243 | 89° F | 71% | 758.9 mmHg | 0 in | - | 2 W/m² | - |
| 1788136940 | 89° F | 70% | 758.8 mmHg | 0 in | - | 4 W/m² | - |
| 1788136635 | 90° F | 70% | 758.8 mmHg | 0 in | - | 7 W/m² | - |
| 1788136331 | 90° F | 69% | 758.8 mmHg | 0 in | - | 10 W/m² | - |
| 1788136030 | 90° F | 68% | 758.6 mmHg | 0 in | - | 16 W/m² | - |
| 1788135724 | 91° F | 67% | 758.5 mmHg | 0 in | - | 20 W/m² | - |
| 1788135421 | 91° F | 66% | 758.6 mmHg | 0 in | - | 25 W/m² | - |
| 1788135115 | 92° F | 66% | 758.6 mmHg | 0 in | - | 27 W/m² | - |
| 1788134812 | 92° F | 65% | 758.6 mmHg | 0 in | - | 32 W/m² | - |
| 1788134512 | 92° F | 65% | 758.8 mmHg | 0 in | - | 35 W/m² | - |
| 1788134210 | 92° F | 65% | 758.8 mmHg | 0 in | - | 38 W/m² | - |
| 1788133906 | 92° F | 65% | 758.7 mmHg | 0 in | - | 41 W/m² | - |
| 1788133600 | 92° F | 65% | 758.7 mmHg | 0 in | - | 44 W/m² | - |
| 1788133291 | 92° F | 65% | 758.8 mmHg | 0 in | - | 42 W/m² | - |
| 1788132986 | 92° F | 65% | 758.5 mmHg | 0 in | - | 38 W/m² | - |
| 1788132681 | 93° F | 65% | 758.8 mmHg | 0 in | - | 39 W/m² | - |
| 1788132377 | 93° F | 65% | 758.7 mmHg | 0 in | - | 45 W/m² | - |
| 1788132074 | 93° F | 64% | 758.5 mmHg | 0 in | - | 52 W/m² | - |
| 1788131769 | 94° F | 63% | 758.8 mmHg | 0 in | - | 55 W/m² | - |
| 1788131468 | 94° F | 62% | 758.7 mmHg | 0 in | - | 120 W/m² | - |
| 1788131164 | 96° F | 61% | 758.5 mmHg | 0 in | - | 107 W/m² | - |
| 1788130858 | 96° F | 60% | 758.5 mmHg | 0 in | - | 229 W/m² | - |
* Rain latest hour (hover to see other rain measurements)
** Current wind speed in m/s (hover to see current wind gust speed)